Location: Peebles
(55.6412°N, 3.1714°W)
Time: 16:06:34
(UTC+01:00)

FLOCK 2P 11 - Visible Passes

Search period start: 03 July 2022 00:00
Search period end: 13 July 2022 00:00
Orbit: 402 x 408 km, 97.2° (Epoch: 02 July)

Date Brightness Start Highest point End Pass type
(mag) Time Alt. Az. Time Alt. Az. Time Alt. Az.
03 Jul ? 23:22:05 10° SW 23:24:14 17° W 23:26:24 10° NW visible
05 Jul ? 23:15:48 10° SW 23:18:11 20° W 23:20:34 10° NW visible
07 Jul ? 23:09:06 10° SSW 23:11:39 23° W 23:14:14 10° NW visible
09 Jul ? 23:01:57 10° SSW 23:04:41 27° W 23:07:26 10° NW visible
10 Jul ? 23:46:54 10° W 23:47:19 10° W 23:47:44 10° W visible
11 Jul ? 22:54:24 10° SSW 22:57:15 32° W 23:00:09 10° NNW visible
12 Jul ? 23:38:14 10° WSW 23:39:37 12° W 23:41:00 10° WNW visible
